www.cux-wetter.de
Wetterdaten: Dienstag, 12.10.2010
Datum Zeit Temp. A. Feuchte A. Luftdruck Regen Wind Richtung Richtung Sonnenschein Solar Taupunkt Windchill Windben
12.10.2010 00:00 8,2 C 85 % 1018,5 hPa 0,0 l/m 0,0 km/h (0 Bft) O-NO 70 0 min 0 W/m 5,8 C 8,2 C 0,0 km/h (0 Bft)
12.10.2010 00:05 8,1 C 85 % 1018,5 hPa 0,0 l/m 0,2 km/h (0 Bft) O-NO 70 0 min 0 W/m 5,7 C 8,1 C 0,2 km/h (0 Bft)
12.10.2010 00:10 8,1 C 85 % 1018,5 hPa 0,0 l/m 0,1 km/h (0 Bft) O-NO 70 0 min 0 W/m 5,7 C 8,1 C 0,1 km/h (0 Bft)
12.10.2010 00:15 8,0 C 85 % 1018,5 hPa 0,0 l/m 0,3 km/h (0 Bft) O-NO 70 0 min 0 W/m 5,6 C 8,0 C 0,3 km/h (0 Bft)
12.10.2010 00:20 8,0 C 85 % 1018,5 hPa 0,0 l/m 0,3 km/h (0 Bft) O-NO 70 0 min 0 W/m 5,6 C 8,0 C 0,3 km/h (0 Bft)
12.10.2010 00:25 8,0 C 85 % 1018,5 hPa 0,0 l/m 0,0 km/h (0 Bft) O-NO 70 0 min 0 W/m 5,6 C 8,0 C 0,0 km/h (0 Bft)
12.10.2010 00:30 8,0 C 85 % 1018,5 hPa 0,0 l/m 0,1 km/h (0 Bft) O-NO 70 0 min 0 W/m 5,6 C 8,0 C 0,1 km/h (0 Bft)
12.10.2010 00:35 8,0 C 85 % 1018,5 hPa 0,0 l/m 0,0 km/h (0 Bft) O-NO 70 0 min 0 W/m 5,6 C 8,0 C 0,0 km/h (0 Bft)
12.10.2010 00:40 8,0 C 86 % 1018,5 hPa 0,0 l/m 0,0 km/h (0 Bft) O-NO 65 0 min 0 W/m 5,8 C 8,0 C 0,0 km/h (0 Bft)
12.10.2010 00:45 8,0 C 86 % 1018,5 hPa 0,0 l/m 0,0 km/h (0 Bft) O-NO 65 0 min 0 W/m 5,8 C 8,0 C 0,0 km/h (0 Bft)
12.10.2010 00:50 8,0 C 86 % 1018,5 hPa 0,0 l/m 0,0 km/h (0 Bft) O-NO 65 0 min 0 W/m 5,8 C 8,0 C 0,0 km/h (0 Bft)
12.10.2010 00:55 7,9 C 86 % 1018,5 hPa 0,0 l/m 0,0 km/h (0 Bft) O-NO 65 0 min 0 W/m 5,7 C 7,9 C 0,0 km/h (0 Bft)
12.10.2010 01:00 8,0 C 86 % 1018,5 hPa 0,0 l/m 0,7 km/h (0 Bft) O-NO 70 0 min 0 W/m 5,8 C 8,0 C 0,7 km/h (0 Bft)
12.10.2010 01:05 8,0 C 86 % 1018,5 hPa 0,0 l/m 0,0 km/h (0 Bft) O-NO 70 0 min 0 W/m 5,8 C 8,0 C 0,0 km/h (0 Bft)
12.10.2010 01:10 7,9 C 86 % 1018,5 hPa 0,0 l/m 0,0 km/h (0 Bft) O-NO 70 0 min 0 W/m 5,7 C 7,9 C 0,0 km/h (0 Bft)
12.10.2010 01:15 7,9 C 86 % 1018,5 hPa 0,0 l/m 0,1 km/h (0 Bft) O-NO 70 0 min 0 W/m 5,7 C 7,9 C 0,1 km/h (0 Bft)
12.10.2010 01:20 7,8 C 86 % 1018,5 hPa 0,0 l/m 0,0 km/h (0 Bft) O-NO 70 0 min 0 W/m 5,6 C 7,8 C 0,0 km/h (0 Bft)
12.10.2010 01:25 7,8 C 86 % 1018,5 hPa 0,0 l/m 0,0 km/h (0 Bft) O-NO 70 0 min 0 W/m 5,6 C 7,8 C 0,0 km/h (0 Bft)
12.10.2010 01:30 7,8 C 86 % 1018,5 hPa 0,0 l/m 0,1 km/h (0 Bft) O-NO 70 0 min 0 W/m 5,6 C 7,8 C 0,1 km/h (0 Bft)
12.10.2010 01:35 7,7 C 86 % 1018,5 hPa 0,0 l/m 0,0 km/h (0 Bft) O-NO 70 0 min 0 W/m 5,5 C 7,7 C 0,0 km/h (0 Bft)
12.10.2010 01:40 7,7 C 86 % 1018,5 hPa 0,0 l/m 0,0 km/h (0 Bft) O-NO 70 0 min 0 W/m 5,5 C 7,7 C 0,0 km/h (0 Bft)
12.10.2010 01:45 7,7 C 86 % 1018,5 hPa 0,0 l/m 0,0 km/h (0 Bft) O-NO 70 0 min 0 W/m 5,5 C 7,7 C 0,0 km/h (0 Bft)
12.10.2010 01:50 7,6 C 86 % 1018,5 hPa 0,0 l/m 0,3 km/h (0 Bft) O-NO 70 0 min 0 W/m 5,4 C 7,6 C 0,3 km/h (0 Bft)
12.10.2010 01:56 7,6 C 86 % 1018,5 hPa 0,0 l/m 0,0 km/h (0 Bft) O-NO 70 0 min 0 W/m 5,4 C 7,6 C 0,0 km/h (0 Bft)
12.10.2010 02:00 7,6 C 86 % 1018,5 hPa 0,0 l/m 0,0 km/h (0 Bft) O-NO 70 0 min 0 W/m 5,4 C 7,6 C 0,0 km/h (0 Bft)
12.10.2010 02:05 7,6 C 86 % 1018,5 hPa 0,0 l/m 0,0 km/h (0 Bft) O-NO 70 0 min 0 W/m 5,4 C 7,6 C 0,0 km/h (0 Bft)
12.10.2010 02:10 7,6 C 86 % 1018,5 hPa 0,0 l/m 0,0 km/h (0 Bft) O-NO 70 0 min 0 W/m 5,4 C 7,6 C 0,0 km/h (0 Bft)
12.10.2010 02:15 7,5 C 86 % 1018,5 hPa 0,0 l/m 0,0 km/h (0 Bft) O-NO 70 0 min 0 W/m 5,3 C 7,5 C 0,0 km/h (0 Bft)
12.10.2010 02:20 7,5 C 85 % 1018,5 hPa 0,0 l/m 0,0 km/h (0 Bft) O-NO 70 0 min 0 W/m 5,1 C 7,5 C 0,0 km/h (0 Bft)
12.10.2010 02:25 7,4 C 84 % 1018,5 hPa 0,0 l/m 0,0 km/h (0 Bft) O-NO 70 0 min 0 W/m 4,9 C 7,4 C 0,0 km/h (0 Bft)
12.10.2010 02:30 7,2 C 84 % 1017,5 hPa 0,0 l/m 0,0 km/h (0 Bft) O-NO 70 0 min 0 W/m 4,7 C 7,2 C 0,0 km/h (0 Bft)
12.10.2010 02:35 7,2 C 83 % 1017,5 hPa 0,0 l/m 0,0 km/h (0 Bft) O-NO 65 0 min 0 W/m 4,5 C 7,2 C 0,0 km/h (0 Bft)
12.10.2010 02:40 7,2 C 83 % 1017,5 hPa 0,0 l/m 0,0 km/h (0 Bft) O-NO 65 0 min 0 W/m 4,5 C 7,2 C 0,0 km/h (0 Bft)
12.10.2010 02:45 7,1 C 83 % 1017,5 hPa 0,0 l/m 0,0 km/h (0 Bft) O-NO 65 0 min 0 W/m 4,4 C 7,1 C 0,0 km/h (0 Bft)
12.10.2010 02:50 7,0 C 83 % 1017,5 hPa 0,0 l/m 0,0 km/h (0 Bft) O-NO 65 0 min 0 W/m 4,3 C 7,0 C 0,0 km/h (0 Bft)
12.10.2010 02:55 6,9 C 83 % 1017,5 hPa 0,0 l/m 0,0 km/h (0 Bft) O-NO 65 0 min 0 W/m 4,2 C 6,9 C 0,0 km/h (0 Bft)
12.10.2010 03:00 6,8 C 83 % 1017,5 hPa 0,0 l/m 0,0 km/h (0 Bft) O-NO 65 0 min 0 W/m 4,1 C 6,8 C 0,0 km/h (0 Bft)
12.10.2010 03:05 6,8 C 83 % 1017,5 hPa 0,0 l/m 0,0 km/h (0 Bft) O-NO 65 0 min 0 W/m 4,1 C 6,8 C 0,0 km/h (0 Bft)
12.10.2010 03:10 6,8 C 83 % 1018,5 hPa 0,0 l/m 0,0 km/h (0 Bft) O-NO 65 0 min 0 W/m 4,1 C 6,8 C 0,0 km/h (0 Bft)
12.10.2010 03:15 6,8 C 83 % 1018,5 hPa 0,0 l/m 0,0 km/h (0 Bft) O-NO 65 0 min 0 W/m 4,1 C 6,8 C 0,0 km/h (0 Bft)
12.10.2010 03:20 6,7 C 84 % 1018,5 hPa 0,0 l/m 0,0 km/h (0 Bft) O-NO 65 0 min 0 W/m 4,2 C 6,7 C 0,0 km/h (0 Bft)
12.10.2010 03:25 6,7 C 85 % 1018,5 hPa 0,0 l/m 0,0 km/h (0 Bft) O-NO 65 0 min 0 W/m 4,4 C 6,7 C 0,0 km/h (0 Bft)
12.10.2010 03:30 6,8 C 85 % 1018,5 hPa 0,0 l/m 0,0 km/h (0 Bft) O-NO 65 0 min 0 W/m 4,5 C 6,8 C 0,0 km/h (0 Bft)
12.10.2010 03:35 6,8 C 85 % 1018,5 hPa 0,0 l/m 0,0 km/h (0 Bft) O-NO 65 0 min 0 W/m 4,5 C 6,8 C 0,0 km/h (0 Bft)
12.10.2010 03:40 6,8 C 86 % 1017,5 hPa 0,0 l/m 0,0 km/h (0 Bft) O-NO 65 0 min 0 W/m 4,6 C 6,8 C 0,0 km/h (0 Bft)
12.10.2010 03:45 6,8 C 86 % 1017,5 hPa 0,0 l/m 0,0 km/h (0 Bft) O-NO 65 0 min 0 W/m 4,6 C 6,8 C 0,0 km/h (0 Bft)
12.10.2010 03:50 6,7 C 86 % 1017,5 hPa 0,0 l/m 0,0 km/h (0 Bft) O-NO 65 0 min 0 W/m 4,5 C 6,7 C 0,0 km/h (0 Bft)
12.10.2010 03:55 6,6 C 86 % 1018,5 hPa 0,0 l/m 0,0 km/h (0 Bft) O-NO 65 0 min 0 W/m 4,4 C 6,6 C 0,0 km/h (0 Bft)
12.10.2010 04:00 6,6 C 86 % 1018,5 hPa 0,0 l/m 0,0 km/h (0 Bft) O-NO 65 0 min 0 W/m 4,4 C 6,6 C 0,0 km/h (0 Bft)
12.10.2010 04:05 6,6 C 86 % 1017,5 hPa 0,0 l/m 0,0 km/h (0 Bft) O-NO 65 0 min 0 W/m 4,4 C 6,6 C 0,0 km/h (0 Bft)
12.10.2010 04:10 6,6 C 86 % 1017,5 hPa 0,0 l/m 0,0 km/h (0 Bft) O-NO 65 0 min 0 W/m 4,4 C 6,6 C 0,0 km/h (0 Bft)
12.10.2010 04:15 6,5 C 86 % 1017,5 hPa 0,0 l/m 0,0 km/h (0 Bft) O-NO 65 0 min 0 W/m 4,3 C 6,5 C 0,0 km/h (0 Bft)
12.10.2010 04:20 6,5 C 86 % 1017,5 hPa 0,0 l/m 0,0 km/h (0 Bft) O-NO 65 0 min 0 W/m 4,3 C 6,5 C 0,0 km/h (0 Bft)
12.10.2010 04:25 6,4 C 86 % 1018,5 hPa 0,0 l/m 0,0 km/h (0 Bft) O-NO 65 0 min 0 W/m 4,2 C 6,4 C 0,0 km/h (0 Bft)
12.10.2010 04:30 6,4 C 86 % 1017,5 hPa 0,0 l/m 0,0 km/h (0 Bft) O-NO 65 0 min 0 W/m 4,2 C 6,4 C 0,0 km/h (0 Bft)
12.10.2010 04:35 6,4 C 86 % 1017,5 hPa 0,0 l/m 0,0 km/h (0 Bft) O-NO 65 0 min 0 W/m 4,2 C 6,4 C 0,0 km/h (0 Bft)
12.10.2010 04:40 6,2 C 85 % 1017,5 hPa 0,0 l/m 0,0 km/h (0 Bft) O-NO 65 0 min 0 W/m 3,9 C 6,2 C 0,0 km/h (0 Bft)
12.10.2010 04:45 6,1 C 85 % 1017,5 hPa 0,0 l/m 0,0 km/h (0 Bft) O-NO 65 0 min 0 W/m 3,8 C 6,1 C 0,0 km/h (0 Bft)
12.10.2010 04:50 6,0 C 85 % 1017,5 hPa 0,0 l/m 0,0 km/h (0 Bft) O-NO 65 0 min 0 W/m 3,7 C 6,0 C 0,0 km/h (0 Bft)
12.10.2010 04:55 5,9 C 85 % 1018,5 hPa 0,0 l/m 0,0 km/h (0 Bft) O-NO 65 0 min 0 W/m 3,6 C 5,9 C 0,0 km/h (0 Bft)
12.10.2010 05:00 5,9 C 85 % 1017,5 hPa 0,0 l/m 0,0 km/h (0 Bft) O-NO 65 0 min 0 W/m 3,6 C 5,9 C 0,0 km/h (0 Bft)
12.10.2010 05:05 5,9 C 85 % 1017,5 hPa 0,0 l/m 0,0 km/h (0 Bft) O-NO 65 0 min 0 W/m 3,6 C 5,9 C 0,0 km/h (0 Bft)
12.10.2010 05:10 5,8 C 85 % 1017,5 hPa 0,0 l/m 0,0 km/h (0 Bft) O-NO 65 0 min 0 W/m 3,5 C 5,8 C 0,0 km/h (0 Bft)
12.10.2010 05:15 5,8 C 84 % 1017,5 hPa 0,0 l/m 0,0 km/h (0 Bft) O-NO 65 0 min 0 W/m 3,3 C 5,8 C 0,0 km/h (0 Bft)
12.10.2010 05:20 5,8 C 84 % 1017,5 hPa 0,0 l/m 0,0 km/h (0 Bft) O-NO 65 0 min 0 W/m 3,3 C 5,8 C 0,0 km/h (0 Bft)
12.10.2010 05:25 5,6 C 84 % 1017,5 hPa 0,0 l/m 0,0 km/h (0 Bft) O-NO 65 0 min 0 W/m 3,1 C 5,6 C 0,0 km/h (0 Bft)
12.10.2010 05:30 5,6 C 84 % 1018,5 hPa 0,0 l/m 0,0 km/h (0 Bft) O-NO 65 0 min 0 W/m 3,1 C 5,6 C 0,0 km/h (0 Bft)
12.10.2010 05:35 5,6 C 84 % 1018,5 hPa 0,0 l/m 0,0 km/h (0 Bft) O-NO 65 0 min 0 W/m 3,1 C 5,6 C 0,0 km/h (0 Bft)
12.10.2010 05:40 5,5 C 84 % 1018,5 hPa 0,0 l/m 0,0 km/h (0 Bft) O-NO 65 0 min 0 W/m 3,0 C 5,5 C 0,0 km/h (0 Bft)
12.10.2010 05:45 5,5 C 85 % 1018,5 hPa 0,0 l/m 0,0 km/h (0 Bft) O-NO 65 0 min 0 W/m 3,2 C 5,5 C 0,0 km/h (0 Bft)
12.10.2010 05:50 5,4 C 85 % 1018,5 hPa 0,0 l/m 0,0 km/h (0 Bft) O-NO 65 0 min 0 W/m 3,1 C 5,4 C 0,0 km/h (0 Bft)
12.10.2010 05:55 5,3 C 85 % 1018,5 hPa 0,0 l/m 0,0 km/h (0 Bft) O-NO 65 0 min 0 W/m 3,0 C 5,3 C 0,0 km/h (0 Bft)
12.10.2010 06:00 5,2 C 85 % 1018,5 hPa 0,0 l/m 0,0 km/h (0 Bft) O-NO 65 0 min 0 W/m 2,9 C 5,2 C 0,0 km/h (0 Bft)
12.10.2010 06:05 5,2 C 85 % 1018,5 hPa 0,0 l/m 0,0 km/h (0 Bft) O-NO 65 0 min 0 W/m 2,9 C 5,2 C 0,0 km/h (0 Bft)
12.10.2010 06:10 5,1 C 84 % 1018,5 hPa 0,0 l/m 0,0 km/h (0 Bft) O-NO 65 0 min 0 W/m 2,6 C 5,1 C 0,0 km/h (0 Bft)
12.10.2010 06:15 4,9 C 84 % 1018,5 hPa 0,0 l/m 0,0 km/h (0 Bft) O-NO 65 0 min 0 W/m 2,4 C 4,9 C 0,0 km/h (0 Bft)
12.10.2010 06:20 4,9 C 84 % 1018,5 hPa 0,0 l/m 0,0 km/h (0 Bft) O-NO 65 0 min 0 W/m 2,4 C 4,9 C 0,0 km/h (0 Bft)
12.10.2010 06:25 4,9 C 84 % 1018,5 hPa 0,0 l/m 0,0 km/h (0 Bft) O-NO 70 0 min 0 W/m 2,4 C 4,9 C 0,0 km/h (0 Bft)
12.10.2010 06:30 4,9 C 84 % 1018,5 hPa 0,0 l/m 0,0 km/h (0 Bft) O-NO 70 0 min 0 W/m 2,4 C 4,9 C 0,0 km/h (0 Bft)
12.10.2010 06:35 4,9 C 84 % 1018,5 hPa 0,0 l/m 0,0 km/h (0 Bft) O-NO 70 0 min 0 W/m 2,4 C 4,9 C 0,0 km/h (0 Bft)
12.10.2010 06:40 4,9 C 84 % 1018,5 hPa 0,0 l/m 0,0 km/h (0 Bft) O-NO 70 0 min 0 W/m 2,4 C 4,9 C 0,0 km/h (0 Bft)
12.10.2010 06:45 4,9 C 84 % 1018,5 hPa 0,0 l/m 0,0 km/h (0 Bft) O-NO 70 0 min 0 W/m 2,4 C 4,9 C 0,0 km/h (0 Bft)
12.10.2010 06:50 4,8 C 84 % 1018,5 hPa 0,0 l/m 0,0 km/h (0 Bft) O-NO 70 0 min 0 W/m 2,3 C 4,8 C 0,0 km/h (0 Bft)
12.10.2010 06:55 4,8 C 83 % 1018,5 hPa 0,0 l/m 0,0 km/h (0 Bft) O-NO 70 0 min 0 W/m 2,2 C 4,8 C 0,0 km/h (0 Bft)
12.10.2010 07:00 4,8 C 84 % 1018,5 hPa 0,0 l/m 0,0 km/h (0 Bft) O-NO 70 0 min 0 W/m 2,3 C 4,8 C 0,0 km/h (0 Bft)
12.10.2010 07:06 4,9 C 84 % 1018,5 hPa 0,0 l/m 0,0 km/h (0 Bft) O-NO 70 0 min 0 W/m 2,4 C 4,9 C 0,0 km/h (0 Bft)
12.10.2010 07:10 5,1 C 84 % 1018,5 hPa 0,0 l/m 0,0 km/h (0 Bft) O-NO 70 0 min 0 W/m 2,6 C 5,1 C 0,0 km/h (0 Bft)
12.10.2010 07:15 5,1 C 84 % 1018,5 hPa 0,0 l/m 0,0 km/h (0 Bft) O-NO 70 0 min 0 W/m 2,6 C 5,1 C 0,0 km/h (0 Bft)
12.10.2010 07:20 5,2 C 84 % 1018,5 hPa 0,0 l/m 0,0 km/h (0 Bft) O-NO 70 0 min 0 W/m 2,7 C 5,2 C 0,0 km/h (0 Bft)
12.10.2010 07:25 5,2 C 84 % 1018,5 hPa 0,0 l/m 0,0 km/h (0 Bft) O-NO 65 0 min 0 W/m 2,7 C 5,2 C 0,0 km/h (0 Bft)
12.10.2010 07:30 5,2 C 85 % 1018,5 hPa 0,0 l/m 0,0 km/h (0 Bft) O-NO 65 0 min 0 W/m 2,9 C 5,2 C 0,0 km/h (0 Bft)
12.10.2010 07:35 5,2 C 85 % 1018,5 hPa 0,0 l/m 0,0 km/h (0 Bft) O-NO 65 0 min 0 W/m 2,9 C 5,2 C 0,0 km/h (0 Bft)
12.10.2010 07:40 5,3 C 85 % 1018,5 hPa 0,0 l/m 0,0 km/h (0 Bft) O-NO 65 0 min 0 W/m 3,0 C 5,3 C 0,0 km/h (0 Bft)
12.10.2010 07:46 5,3 C 84 % 1018,5 hPa 0,0 l/m 0,0 km/h (0 Bft) O-NO 65 0 min 0 W/m 2,8 C 5,3 C 0,0 km/h (0 Bft)
12.10.2010 07:50 5,3 C 84 % 1018,5 hPa 0,0 l/m 0,0 km/h (0 Bft) O-NO 65 0 min 0 W/m 2,8 C 5,3 C 0,0 km/h (0 Bft)
12.10.2010 07:55 5,2 C 85 % 1018,5 hPa 0,0 l/m 0,0 km/h (0 Bft) O-NO 65 0 min 0 W/m 2,9 C 5,2 C 0,0 km/h (0 Bft)
12.10.2010 08:00 5,3 C 85 % 1018,5 hPa 0,0 l/m 0,0 km/h (0 Bft) O-NO 65 0 min 0 W/m 3,0 C 5,3 C 0,0 km/h (0 Bft)
12.10.2010 08:05 5,3 C 85 % 1018,5 hPa 0,0 l/m 0,0 km/h (0 Bft) O-NO 65 0 min 0 W/m 3,0 C 5,3 C 0,0 km/h (0 Bft)
12.10.2010 08:10 5,5 C 85 % 1018,5 hPa 0,0 l/m 0,0 km/h (0 Bft) O-NO 65 0 min 0 W/m 3,2 C 5,5 C 0,0 km/h (0 Bft)
12.10.2010 08:15 5,6 C 85 % 1018,5 hPa 0,0 l/m 0,0 km/h (0 Bft) O-NO 65 0 min 0 W/m 3,3 C 5,6 C 0,0 km/h (0 Bft)
12.10.2010 08:20 5,6 C 85 % 1018,5 hPa 0,0 l/m 0,0 km/h (0 Bft) O-NO 65 0 min 0 W/m 3,3 C 5,6 C 0,0 km/h (0 Bft)
12.10.2010 08:25 5,6 C 85 % 1018,5 hPa 0,0 l/m 0,0 km/h (0 Bft) O-NO 65 0 min 0 W/m 3,3 C 5,6 C 0,0 km/h (0 Bft)
12.10.2010 08:30 5,6 C 85 % 1018,5 hPa 0,0 l/m 0,0 km/h (0 Bft) O-NO 65 0 min 0 W/m 3,3 C 5,6 C 0,0 km/h (0 Bft)
12.10.2010 08:35 5,8 C 86 % 1018,5 hPa 0,0 l/m 0,0 km/h (0 Bft) O-NO 65 0 min 0 W/m 3,6 C 5,8 C 0,0 km/h (0 Bft)
12.10.2010 08:40 5,8 C 86 % 1018,5 hPa 0,0 l/m 0,0 km/h (0 Bft) O-NO 65 0 min 0 W/m 3,6 C 5,8 C 0,0 km/h (0 Bft)
12.10.2010 08:45 5,9 C 86 % 1018,5 hPa 0,0 l/m 0,0 km/h (0 Bft) O-NO 65 0 min 0 W/m 3,7 C 5,9 C 0,0 km/h (0 Bft)
12.10.2010 08:50 6,0 C 86 % 1018,5 hPa 0,0 l/m 0,0 km/h (0 Bft) O-NO 65 0 min 0 W/m 3,8 C 6,0 C 0,0 km/h (0 Bft)
12.10.2010 08:55 6,0 C 86 % 1018,5 hPa 0,0 l/m 0,0 km/h (0 Bft) O-NO 65 0 min 0 W/m 3,8 C 6,0 C 0,0 km/h (0 Bft)
12.10.2010 09:00 6,1 C 86 % 1018,5 hPa 0,0 l/m 0,2 km/h (0 Bft) O-NO 70 0 min 0 W/m 3,9 C 6,1 C 0,2 km/h (0 Bft)
12.10.2010 09:05 6,3 C 86 % 1018,5 hPa 0,0 l/m 4,8 km/h (1 Bft) O-SO 105 0 min 0 W/m 4,1 C 6,3 C 4,8 km/h (1 Bft)
12.10.2010 09:10 6,3 C 86 % 1018,5 hPa 0,0 l/m 3,2 km/h (1 Bft) O-SO 105 0 min 0 W/m 4,1 C 6,3 C 3,2 km/h (1 Bft)
12.10.2010 09:15 6,4 C 87 % 1018,5 hPa 0,0 l/m 3,6 km/h (1 Bft) O-SO 105 0 min 0 W/m 4,4 C 6,4 C 3,6 km/h (1 Bft)
12.10.2010 09:20 6,4 C 87 % 1018,5 hPa 0,0 l/m 0,6 km/h (0 Bft) O-SO 105 0 min 0 W/m 4,4 C 6,4 C 0,6 km/h (0 Bft)
12.10.2010 09:25 6,4 C 87 % 1018,5 hPa 0,0 l/m 0,0 km/h (0 Bft) O-SO 105 0 min 0 W/m 4,4 C 6,4 C 0,0 km/h (0 Bft)
12.10.2010 09:30 6,4 C 87 % 1018,5 hPa 0,0 l/m 0,0 km/h (0 Bft) O-SO 105 0 min 0 W/m 4,4 C 6,4 C 0,0 km/h (0 Bft)
12.10.2010 09:35 6,4 C 87 % 1018,5 hPa 0,0 l/m 0,3 km/h (0 Bft) O-SO 105 0 min 0 W/m 4,4 C 6,4 C 0,3 km/h (0 Bft)
12.10.2010 09:40 6,5 C 87 % 1018,5 hPa 0,0 l/m 3,7 km/h (1 Bft) O-SO 105 0 min 0 W/m 4,5 C 6,5 C 3,7 km/h (1 Bft)
12.10.2010 09:45 6,6 C 87 % 1018,5 hPa 0,0 l/m 0,1 km/h (0 Bft) O-SO 105 0 min 0 W/m 4,6 C 6,6 C 0,1 km/h (0 Bft)
12.10.2010 09:50 6,7 C 87 % 1018,5 hPa 0,0 l/m 0,4 km/h (0 Bft) O-SO 105 0 min 0 W/m 4,7 C 6,7 C 0,4 km/h (0 Bft)
12.10.2010 09:56 6,8 C 87 % 1018,5 hPa 0,0 l/m 3,4 km/h (1 Bft) O-SO 105 0 min 0 W/m 4,8 C 6,8 C 3,4 km/h (1 Bft)
12.10.2010 10:00 6,8 C 87 % 1018,5 hPa 0,0 l/m 2,5 km/h (1 Bft) O-SO 105 0 min 0 W/m 4,8 C 6,8 C 2,5 km/h (1 Bft)
12.10.2010 10:05 6,9 C 87 % 1018,5 hPa 0,0 l/m 2,8 km/h (1 Bft) O-SO 105 0 min 0 W/m 4,9 C 6,9 C 2,8 km/h (1 Bft)
12.10.2010 10:10 6,9 C 87 % 1018,5 hPa 0,0 l/m 0,3 km/h (0 Bft) O-SO 105 0 min 0 W/m 4,9 C 6,9 C 0,3 km/h (0 Bft)
12.10.2010 10:15 7,0 C 88 % 1018,5 hPa 0,0 l/m 2,4 km/h (1 Bft) O-SO 105 0 min 0 W/m 5,2 C 7,0 C 2,4 km/h (1 Bft)
12.10.2010 10:20 7,2 C 88 % 1018,5 hPa 0,0 l/m 3,3 km/h (1 Bft) O-SO 105 0 min 0 W/m 5,3 C 7,2 C 3,3 km/h (1 Bft)
12.10.2010 10:25 7,3 C 88 % 1018,5 hPa 0,0 l/m 0,0 km/h (0 Bft) O-SO 105 0 min 0 W/m 5,4 C 7,3 C 0,0 km/h (0 Bft)
12.10.2010 10:30 7,5 C 88 % 1018,5 hPa 0,0 l/m 0,3 km/h (0 Bft) O-SO 105 0 min 0 W/m 5,6 C 7,5 C 0,3 km/h (0 Bft)
12.10.2010 10:35 7,6 C 88 % 1018,5 hPa 0,0 l/m 0,2 km/h (0 Bft) O-SO 105 0 min 0 W/m 5,7 C 7,6 C 0,2 km/h (0 Bft)
12.10.2010 10:40 7,8 C 89 % 1018,5 hPa 0,0 l/m 4,3 km/h (1 Bft) O 100 0 min 0 W/m 6,1 C 7,8 C 4,3 km/h (1 Bft)
12.10.2010 10:45 8,0 C 89 % 1018,5 hPa 0,0 l/m 4,2 km/h (1 Bft) O-SO 105 0 min 0 W/m 6,3 C 8,0 C 4,2 km/h (1 Bft)
12.10.2010 10:50 8,2 C 89 % 1018,5 hPa 0,0 l/m 4,6 km/h (1 Bft) O-SO 105 0 min 0 W/m 6,5 C 8,2 C 4,6 km/h (1 Bft)
12.10.2010 10:55 8,4 C 89 % 1018,5 hPa 0,0 l/m 4,0 km/h (1 Bft) O-SO 105 0 min 0 W/m 6,7 C 8,4 C 4,0 km/h (1 Bft)
12.10.2010 11:00 8,8 C 90 % 1018,5 hPa 0,0 l/m 0,4 km/h (0 Bft) O-SO 105 0 min 0 W/m 7,3 C 8,8 C 0,4 km/h (0 Bft)
12.10.2010 11:05 8,9 C 90 % 1018,5 hPa 0,0 l/m 0,0 km/h (0 Bft) O 100 0 min 0 W/m 7,4 C 8,9 C 0,0 km/h (0 Bft)
12.10.2010 11:10 9,3 C 90 % 1018,5 hPa 0,0 l/m 0,6 km/h (0 Bft) O 100 0 min 0 W/m 7,7 C 9,3 C 0,6 km/h (0 Bft)
12.10.2010 11:15 9,5 C 90 % 1018,5 hPa 0,0 l/m 4,6 km/h (1 Bft) O-SO 105 0 min 0 W/m 7,9 C 9,5 C 4,6 km/h (1 Bft)
12.10.2010 11:20 9,9 C 89 % 1018,5 hPa 0,0 l/m 7,6 km/h (2 Bft) SO 145 0 min 0 W/m 8,2 C 9,0 C 7,6 km/h (2 Bft)
12.10.2010 11:26 10,0 C 88 % 1018,5 hPa 0,0 l/m 5,9 km/h (2 Bft) W-SW 255 0 min 0 W/m 8,1 C 10,0 C 5,9 km/h (2 Bft)
12.10.2010 11:30 10,3 C 87 % 1018,5 hPa 0,0 l/m 11,1 km/h (2 Bft) W 270 0 min 0 W/m 8,2 C 7,3 C 11,1 km/h (2 Bft)
12.10.2010 11:35 10,4 C 87 % 1018,5 hPa 0,0 l/m 7,4 km/h (2 Bft) W-NW 285 0 min 0 W/m 8,3 C 9,7 C 7,4 km/h (2 Bft)
12.10.2010 11:40 10,7 C 86 % 1018,5 hPa 0,0 l/m 11,3 km/h (2 Bft) NW 305 0 min 0 W/m 8,5 C 7,7 C 11,3 km/h (2 Bft)
12.10.2010 11:45 10,8 C 85 % 1018,5 hPa 0,0 l/m 15,0 km/h (3 Bft) NW 315 0 min 0 W/m 8,4 C 6,1 C 15,0 km/h (3 Bft)
12.10.2010 11:50 10,8 C 84 % 1018,5 hPa 0,0 l/m 12,3 km/h (2 Bft) W-NW 300 0 min 0 W/m 8,2 C 7,3 C 12,3 km/h (2 Bft)
12.10.2010 11:55 10,8 C 84 % 1018,5 hPa 0,0 l/m 11,6 km/h (2 Bft) W 265 0 min 0 W/m 8,2 C 7,6 C 11,6 km/h (2 Bft)
12.10.2010 12:01 10,6 C 84 % 1018,5 hPa 0,0 l/m 12,6 km/h (3 Bft) W 265 0 min 0 W/m 8,0 C 6,9 C 12,6 km/h (3 Bft)
12.10.2010 12:05 10,5 C 84 % 1018,5 hPa 0,0 l/m 15,7 km/h (3 Bft) W 260 0 min 0 W/m 7,9 C 5,5 C 15,7 km/h (3 Bft)
12.10.2010 12:10 10,5 C 84 % 1018,5 hPa 0,0 l/m 12,1 km/h (2 Bft) W 260 0 min 0 W/m 7,9 C 7,0 C 12,1 km/h (2 Bft)
12.10.2010 12:15 10,6 C 84 % 1018,5 hPa 0,0 l/m 12,6 km/h (3 Bft) W-SW 245 0 min 0 W/m 8,0 C 6,9 C 12,6 km/h (3 Bft)
12.10.2010 12:20 10,7 C 83 % 1018,5 hPa 0,0 l/m 13,9 km/h (3 Bft) W 260 0 min 0 W/m 7,9 C 6,4 C 13,9 km/h (3 Bft)
12.10.2010 12:25 10,8 C 82 % 1018,5 hPa 0,0 l/m 15,8 km/h (3 Bft) W-SW 250 0 min 0 W/m 7,9 C 5,8 C 15,8 km/h (3 Bft)
12.10.2010 12:30 10,8 C 82 % 1018,5 hPa 0,0 l/m 13,8 km/h (3 Bft) W 260 0 min 0 W/m 7,9 C 6,6 C 13,8 km/h (3 Bft)
12.10.2010 12:35 10,8 C 82 % 1018,5 hPa 0,0 l/m 10,7 km/h (2 Bft) W-SW 250 0 min 0 W/m 7,9 C 8,1 C 10,7 km/h (2 Bft)
12.10.2010 12:40 10,8 C 82 % 1018,5 hPa 0,0 l/m 10,0 km/h (2 Bft) W 270 0 min 0 W/m 7,9 C 8,5 C 10,0 km/h (2 Bft)
12.10.2010 12:45 10,8 C 82 % 1018,5 hPa 0,0 l/m 10,0 km/h (2 Bft) W 265 0 min 0 W/m 7,9 C 8,5 C 10,0 km/h (2 Bft)
12.10.2010 12:50 10,8 C 81 % 1018,5 hPa 0,0 l/m 10,8 km/h (2 Bft) W 265 0 min 0 W/m 7,7 C 8,0 C 10,8 km/h (2 Bft)
12.10.2010 12:55 10,8 C 81 % 1018,5 hPa 0,0 l/m 11,6 km/h (2 Bft) W 260 0 min 0 W/m 7,7 C 7,6 C 11,6 km/h (2 Bft)
12.10.2010 13:00 10,8 C 81 % 1018,5 hPa 0,0 l/m 14,7 km/h (3 Bft) W 265 0 min 0 W/m 7,7 C 6,2 C 14,7 km/h (3 Bft)
12.10.2010 13:05 10,7 C 81 % 1018,5 hPa 0,0 l/m 13,7 km/h (3 Bft) W 265 0 min 0 W/m 7,6 C 6,5 C 13,7 km/h (3 Bft)
12.10.2010 13:10 10,6 C 81 % 1018,5 hPa 0,0 l/m 13,1 km/h (3 Bft) W 270 0 min 0 W/m 7,5 C 6,7 C 13,1 km/h (3 Bft)
12.10.2010 13:15 10,7 C 82 % 1018,5 hPa 0,0 l/m 9,6 km/h (2 Bft) W 265 0 min 0 W/m 7,8 C 8,6 C 9,6 km/h (2 Bft)
12.10.2010 13:20 10,7 C 82 % 1018,5 hPa 0,0 l/m 13,6 km/h (3 Bft) W 260 0 min 0 W/m 7,8 C 6,6 C 13,6 km/h (3 Bft)
12.10.2010 13:25 10,8 C 83 % 1018,5 hPa 0,0 l/m 13,6 km/h (3 Bft) W-SW 255 0 min 0 W/m 8,0 C 6,7 C 13,6 km/h (3 Bft)
12.10.2010 13:30 11,0 C 81 % 1018,5 hPa 0,0 l/m 12,7 km/h (3 Bft) W-SW 255 0 min 0 W/m 7,9 C 7,3 C 12,7 km/h (3 Bft)
12.10.2010 13:35 11,0 C 81 % 1017,5 hPa 0,0 l/m 12,3 km/h (2 Bft) W 265 0 min 0 W/m 7,9 C 7,5 C 12,3 km/h (2 Bft)
12.10.2010 13:40 11,0 C 81 % 1017,5 hPa 0,0 l/m 12,1 km/h (2 Bft) W 280 0 min 0 W/m 7,9 C 7,6 C 12,1 km/h (2 Bft)
12.10.2010 13:45 11,0 C 81 % 1017,5 hPa 0,0 l/m 9,7 km/h (2 Bft) W 265 0 min 0 W/m 7,9 C 8,9 C 9,7 km/h (2 Bft)
12.10.2010 13:50 11,1 C 81 % 1017,5 hPa 0,0 l/m 13,0 km/h (3 Bft) W 270 0 min 0 W/m 8,0 C 7,3 C 13,0 km/h (3 Bft)
12.10.2010 13:55 11,1 C 81 % 1017,5 hPa 0,0 l/m 15,5 km/h (3 Bft) W 260 0 min 0 W/m 8,0 C 6,3 C 15,5 km/h (3 Bft)
12.10.2010 14:00 11,2 C 81 % 1017,5 hPa 0,0 l/m 13,0 km/h (3 Bft) W 260 0 min 0 W/m 8,1 C 7,4 C 13,0 km/h (3 Bft)
12.10.2010 14:05 11,3 C 81 % 1017,5 hPa 0,0 l/m 11,9 km/h (2 Bft) W 265 0 min 0 W/m 8,2 C 8,1 C 11,9 km/h (2 Bft)
12.10.2010 14:10 11,4 C 81 % 1017,5 hPa 0,0 l/m 13,3 km/h (3 Bft) W-SW 250 0 min 0 W/m 8,3 C 7,5 C 13,3 km/h (3 Bft)
12.10.2010 14:15 11,6 C 80 % 1017,5 hPa 0,0 l/m 12,2 km/h (2 Bft) W 265 0 min 0 W/m 8,3 C 8,3 C 12,2 km/h (2 Bft)
12.10.2010 14:20 11,9 C 80 % 1017,5 hPa 0,0 l/m 14,8 km/h (3 Bft) W 260 0 min 0 W/m 8,6 C 7,5 C 14,8 km/h (3 Bft)
12.10.2010 14:25 12,0 C 78 % 1017,5 hPa 0,0 l/m 16,4 km/h (3 Bft) W-NW 300 0 min 0 W/m 8,3 C 7,0 C 16,4 km/h (3 Bft)
12.10.2010 14:30 12,2 C 79 % 1017,5 hPa 0,0 l/m 12,1 km/h (2 Bft) W-NW 290 0 min 0 W/m 8,7 C 9,0 C 12,1 km/h (2 Bft)
12.10.2010 14:35 12,1 C 77 % 1017,5 hPa 0,0 l/m 14,0 km/h (3 Bft) W-NW 295 0 min 0 W/m 8,2 C 8,1 C 14,0 km/h (3 Bft)
12.10.2010 14:40 12,1 C 78 % 1017,5 hPa 0,0 l/m 12,3 km/h (2 Bft) W-NW 290 0 min 0 W/m 8,4 C 8,8 C 12,3 km/h (2 Bft)
12.10.2010 14:45 12,2 C 77 % 1017,5 hPa 0,0 l/m 12,6 km/h (3 Bft) W-NW 290 0 min 0 W/m 8,3 C 8,8 C 12,6 km/h (3 Bft)
12.10.2010 14:50 12,2 C 77 % 1017,5 hPa 0,0 l/m 14,0 km/h (3 Bft) W 260 0 min 0 W/m 8,3 C 8,2 C 14,0 km/h (3 Bft)
12.10.2010 14:55 12,2 C 77 % 1017,5 hPa 0,0 l/m 15,6 km/h (3 Bft) W 260 0 min 0 W/m 8,3 C 7,6 C 15,6 km/h (3 Bft)
12.10.2010 15:00 12,3 C 77 % 1017,5 hPa 0,0 l/m 15,0 km/h (3 Bft) W-SW 255 0 min 0 W/m 8,4 C 7,9 C 15,0 km/h (3 Bft)
12.10.2010 15:05 12,2 C 77 % 1017,5 hPa 0,0 l/m 10,3 km/h (2 Bft) W-NW 290 0 min 0 W/m 8,3 C 9,9 C 10,3 km/h (2 Bft)
12.10.2010 15:10 12,1 C 77 % 1017,5 hPa 0,0 l/m 11,1 km/h (2 Bft) W 270 0 min 0 W/m 8,2 C 9,4 C 11,1 km/h (2 Bft)
12.10.2010 15:15 12,0 C 77 % 1017,5 hPa 0,0 l/m 12,3 km/h (2 Bft) W-SW 255 0 min 0 W/m 8,1 C 8,7 C 12,3 km/h (2 Bft)
12.10.2010 15:20 12,0 C 77 % 1017,5 hPa 0,0 l/m 11,1 km/h (2 Bft) W 265 0 min 0 W/m 8,1 C 9,2 C 11,1 km/h (2 Bft)
12.10.2010 15:25 12,0 C 77 % 1017,5 hPa 0,0 l/m 12,5 km/h (2 Bft) W 275 0 min 0 W/m 8,1 C 8,6 C 12,5 km/h (2 Bft)
12.10.2010 15:30 12,0 C 77 % 1017,5 hPa 0,0 l/m 10,1 km/h (2 Bft) W-NW 300 0 min 0 W/m 8,1 C 9,8 C 10,1 km/h (2 Bft)
12.10.2010 15:35 12,0 C 77 % 1017,5 hPa 0,0 l/m 10,7 km/h (2 Bft) W-NW 290 0 min 0 W/m 8,1 C 9,4 C 10,7 km/h (2 Bft)
12.10.2010 15:40 12,0 C 77 % 1016,5 hPa 0,0 l/m 11,3 km/h (2 Bft) W-SW 255 0 min 0 W/m 8,1 C 9,1 C 11,3 km/h (2 Bft)
12.10.2010 15:45 12,0 C 77 % 1016,5 hPa 0,0 l/m 8,2 km/h (2 Bft) W 270 0 min 0 W/m 8,1 C 10,8 C 8,2 km/h (2 Bft)
12.10.2010 15:50 12,0 C 77 % 1016,5 hPa 0,0 l/m 9,4 km/h (2 Bft) W 260 0 min 0 W/m 8,1 C 10,1 C 9,4 km/h (2 Bft)
12.10.2010 15:55 12,0 C 77 % 1016,5 hPa 0,0 l/m 10,6 km/h (2 Bft) W 265 0 min 0 W/m 8,1 C 9,5 C 10,6 km/h (2 Bft)
12.10.2010 16:00 12,0 C 77 % 1016,5 hPa 0,0 l/m 8,1 km/h (2 Bft) W 280 0 min 0 W/m 8,1 C 10,9 C 8,1 km/h (2 Bft)
12.10.2010 16:05 12,0 C 77 % 1016,5 hPa 0,0 l/m 9,8 km/h (2 Bft) W 265 0 min 0 W/m 8,1 C 9,9 C 9,8 km/h (2 Bft)
12.10.2010 16:10 12,1 C 77 % 1016,5 hPa 0,0 l/m 9,6 km/h (2 Bft) W 275 0 min 0 W/m 8,2 C 10,1 C 9,6 km/h (2 Bft)
12.10.2010 16:15 12,0 C 76 % 1016,5 hPa 0,0 l/m 11,5 km/h (2 Bft) W-NW 295 0 min 0 W/m 7,9 C 9,1 C 11,5 km/h (2 Bft)
12.10.2010 16:20 12,0 C 76 % 1016,5 hPa 0,0 l/m 8,5 km/h (2 Bft) W 270 0 min 0 W/m 7,9 C 10,6 C 8,5 km/h (2 Bft)
12.10.2010 16:25 11,9 C 76 % 1016,5 hPa 0,0 l/m 8,5 km/h (2 Bft) W 270 0 min 0 W/m 7,8 C 10,5 C 8,5 km/h (2 Bft)
12.10.2010 16:30 11,9 C 77 % 1016,5 hPa 0,0 l/m 11,1 km/h (2 Bft) W 270 0 min 0 W/m 8,0 C 9,1 C 11,1 km/h (2 Bft)
12.10.2010 16:35 11,8 C 77 % 1016,5 hPa 0,0 l/m 12,5 km/h (2 Bft) W 275 0 min 0 W/m 7,9 C 8,4 C 12,5 km/h (2 Bft)
12.10.2010 16:40 11,8 C 77 % 1016,5 hPa 0,0 l/m 7,7 km/h (2 Bft) W-NW 300 0 min 0 W/m 7,9 C 10,9 C 7,7 km/h (2 Bft)
12.10.2010 16:45 11,8 C 77 % 1016,5 hPa 0,0 l/m 9,3 km/h (2 Bft) W 275 0 min 0 W/m 7,9 C 10,0 C 9,3 km/h (2 Bft)
12.10.2010 16:50 11,8 C 77 % 1016,5 hPa 0,0 l/m 10,1 km/h (2 Bft) W 265 0 min 0 W/m 7,9 C 9,5 C 10,1 km/h (2 Bft)
12.10.2010 16:55 11,6 C 77 % 1016,5 hPa 0,0 l/m 9,3 km/h (2 Bft) W 275 0 min 0 W/m 7,7 C 9,8 C 9,3 km/h (2 Bft)
12.10.2010 17:00 11,6 C 78 % 1016,5 hPa 0,0 l/m 11,0 km/h (2 Bft) W-SW 255 0 min 0 W/m 7,9 C 8,8 C 11,0 km/h (2 Bft)
12.10.2010 17:05 11,6 C 78 % 1016,5 hPa 0,0 l/m 12,9 km/h (3 Bft) W 265 0 min 0 W/m 7,9 C 7,9 C 12,9 km/h (3 Bft)
12.10.2010 17:11 11,6 C 79 % 1016,5 hPa 0,0 l/m 10,9 km/h (2 Bft) W-SW 255 0 min 0 W/m 8,1 C 8,9 C 10,9 km/h (2 Bft)
12.10.2010 17:15 11,6 C 79 % 1016,5 hPa 0,0 l/m 7,4 km/h (2 Bft) W 260 0 min 0 W/m 8,1 C 10,9 C 7,4 km/h (2 Bft)
12.10.2010 17:20 11,5 C 79 % 1016,5 hPa 0,0 l/m 7,4 km/h (2 Bft) W 260 0 min 0 W/m 8,0 C 10,8 C 7,4 km/h (2 Bft)
12.10.2010 17:25 11,6 C 79 % 1016,5 hPa 0,0 l/m 7,2 km/h (2 Bft) W-SW 255 0 min 0 W/m 8,1 C 11,1 C 7,2 km/h (2 Bft)
12.10.2010 17:30 11,6 C 79 % 1016,5 hPa 0,0 l/m 9,9 km/h (2 Bft) W-SW 250 0 min 0 W/m 8,1 C 9,4 C 9,9 km/h (2 Bft)
12.10.2010 17:35 11,5 C 79 % 1016,5 hPa 0,0 l/m 10,4 km/h (2 Bft) W 260 0 min 0 W/m 8,0 C 9,0 C 10,4 km/h (2 Bft)
12.10.2010 17:40 11,5 C 79 % 1016,5 hPa 0,0 l/m 7,1 km/h (2 Bft) W 260 0 min 0 W/m 8,0 C 11,0 C 7,1 km/h (2 Bft)
12.10.2010 17:45 11,5 C 79 % 1016,5 hPa 0,0 l/m 5,6 km/h (2 Bft) W 260 0 min 0 W/m 8,0 C 11,5 C 5,6 km/h (2 Bft)
12.10.2010 17:50 11,4 C 79 % 1016,5 hPa 0,0 l/m 6,5 km/h (2 Bft) W 260 0 min 0 W/m 7,9 C 11,4 C 6,5 km/h (2 Bft)
12.10.2010 17:55 11,4 C 79 % 1016,5 hPa 0,0 l/m 5,5 km/h (2 Bft) W 260 0 min 0 W/m 7,9 C 11,4 C 5,5 km/h (2 Bft)
12.10.2010 18:00 11,4 C 79 % 1016,5 hPa 0,0 l/m 6,9 km/h (2 Bft) W 260 0 min 0 W/m 7,9 C 11,1 C 6,9 km/h (2 Bft)
12.10.2010 18:06 11,4 C 80 % 1016,5 hPa 0,0 l/m 5,9 km/h (2 Bft) W 260 0 min 0 W/m 8,1 C 11,4 C 5,9 km/h (2 Bft)
12.10.2010 18:10 11,4 C 80 % 1016,5 hPa 0,0 l/m 4,5 km/h (1 Bft) W 260 0 min 0 W/m 8,1 C 11,4 C 4,5 km/h (1 Bft)
12.10.2010 18:15 11,2 C 80 % 1016,5 hPa 0,0 l/m 4,5 km/h (1 Bft) W 260 0 min 0 W/m 7,9 C 11,2 C 4,5 km/h (1 Bft)
12.10.2010 18:20 11,2 C 80 % 1016,5 hPa 0,0 l/m 3,0 km/h (1 Bft) W 260 0 min 0 W/m 7,9 C 11,2 C 3,0 km/h (1 Bft)
12.10.2010 18:25 11,2 C 80 % 1016,5 hPa 0,0 l/m 0,0 km/h (0 Bft) W 260 0 min 0 W/m 7,9 C 11,2 C 0,0 km/h (0 Bft)
12.10.2010 18:30 11,2 C 80 % 1016,5 hPa 0,0 l/m 0,0 km/h (0 Bft) W 260 0 min 0 W/m 7,9 C 11,2 C 0,0 km/h (0 Bft)
12.10.2010 18:35 11,1 C 80 % 1016,5 hPa 0,0 l/m 0,1 km/h (0 Bft) W 260 0 min 0 W/m 7,8 C 11,1 C 0,1 km/h (0 Bft)
12.10.2010 18:40 10,9 C 81 % 1016,5 hPa 0,0 l/m 0,0 km/h (0 Bft) W-SW 255 0 min 0 W/m 7,8 C 10,9 C 0,0 km/h (0 Bft)
12.10.2010 18:45 10,8 C 81 % 1016,5 hPa 0,0 l/m 0,0 km/h (0 Bft) W-SW 255 0 min 0 W/m 7,7 C 10,8 C 0,0 km/h (0 Bft)
12.10.2010 18:50 10,8 C 81 % 1016,5 hPa 0,0 l/m 0,0 km/h (0 Bft) W-SW 255 0 min 0 W/m 7,7 C 10,8 C 0,0 km/h (0 Bft)
12.10.2010 18:55 10,7 C 81 % 1016,5 hPa 0,0 l/m 0,3 km/h (0 Bft) W-SW 255 0 min 0 W/m 7,6 C 10,7 C 0,3 km/h (0 Bft)
12.10.2010 19:00 10,6 C 81 % 1016,5 hPa 0,0 l/m 0,5 km/h (0 Bft) W 260 0 min 0 W/m 7,5 C 10,6 C 0,5 km/h (0 Bft)
12.10.2010 19:05 10,4 C 81 % 1016,5 hPa 0,0 l/m 0,0 km/h (0 Bft) W 260 0 min 0 W/m 7,3 C 10,4 C 0,0 km/h (0 Bft)
12.10.2010 19:10 10,3 C 81 % 1016,5 hPa 0,0 l/m 0,0 km/h (0 Bft) W 260 0 min 0 W/m 7,2 C 10,3 C 0,0 km/h (0 Bft)
12.10.2010 19:15 10,1 C 82 % 1016,5 hPa 0,0 l/m 0,0 km/h (0 Bft) W 260 0 min 0 W/m 7,2 C 10,1 C 0,0 km/h (0 Bft)
12.10.2010 19:20 10,1 C 82 % 1016,5 hPa 0,0 l/m 0,0 km/h (0 Bft) W 260 0 min 0 W/m 7,2 C 10,1 C 0,0 km/h (0 Bft)
12.10.2010 19:25 10,0 C 82 % 1016,5 hPa 0,0 l/m 0,0 km/h (0 Bft) W 260 0 min 0 W/m 7,1 C 10,0 C 0,0 km/h (0 Bft)
12.10.2010 19:30 9,9 C 82 % 1016,5 hPa 0,0 l/m 0,0 km/h (0 Bft) W 260 0 min 0 W/m 7,0 C 9,9 C 0,0 km/h (0 Bft)
12.10.2010 19:35 10,0 C 82 % 1016,5 hPa 0,0 l/m 0,0 km/h (0 Bft) W 260 0 min 0 W/m 7,1 C 10,0 C 0,0 km/h (0 Bft)
12.10.2010 19:40 10,0 C 82 % 1016,5 hPa 0,0 l/m 0,0 km/h (0 Bft) W 260 0 min 0 W/m 7,1 C 10,0 C 0,0 km/h (0 Bft)
12.10.2010 19:45 10,0 C 83 % 1016,5 hPa 0,0 l/m 0,0 km/h (0 Bft) W 260 0 min 0 W/m 7,2 C 10,0 C 0,0 km/h (0 Bft)
12.10.2010 19:50 10,0 C 83 % 1016,5 hPa 0,0 l/m 0,0 km/h (0 Bft) W 260 0 min 0 W/m 7,2 C 10,0 C 0,0 km/h (0 Bft)
12.10.2010 19:55 10,0 C 83 % 1016,5 hPa 0,0 l/m 0,0 km/h (0 Bft) W 260 0 min 0 W/m 7,2 C 10,0 C 0,0 km/h (0 Bft)
12.10.2010 20:00 10,0 C 83 % 1016,5 hPa 0,0 l/m 0,0 km/h (0 Bft) W 260 0 min 0 W/m 7,2 C 10,0 C 0,0 km/h (0 Bft)
12.10.2010 20:05 10,0 C 83 % 1016,5 hPa 0,0 l/m 0,0 km/h (0 Bft) W 260 0 min 0 W/m 7,2 C 10,0 C 0,0 km/h (0 Bft)
12.10.2010 20:10 10,0 C 83 % 1016,5 hPa 0,0 l/m 0,0 km/h (0 Bft) W 260 0 min 0 W/m 7,2 C 10,0 C 0,0 km/h (0 Bft)
12.10.2010 20:15 9,9 C 83 % 1016,5 hPa 0,0 l/m 0,0 km/h (0 Bft) W 260 0 min 0 W/m 7,2 C 9,9 C 0,0 km/h (0 Bft)
12.10.2010 20:20 9,9 C 83 % 1016,5 hPa 0,0 l/m 0,0 km/h (0 Bft) W 260 0 min 0 W/m 7,2 C 9,9 C 0,0 km/h (0 Bft)
12.10.2010 20:25 9,9 C 83 % 1016,5 hPa 0,0 l/m 0,0 km/h (0 Bft) W 260 0 min 0 W/m 7,2 C 9,9 C 0,0 km/h (0 Bft)
12.10.2010 20:30 9,8 C 84 % 1016,5 hPa 0,0 l/m 0,0 km/h (0 Bft) W 260 0 min 0 W/m 7,2 C 9,8 C 0,0 km/h (0 Bft)
12.10.2010 20:35 9,8 C 84 % 1016,5 hPa 0,0 l/m 0,0 km/h (0 Bft) W 260 0 min 0 W/m 7,2 C 9,8 C 0,0 km/h (0 Bft)
12.10.2010 20:40 9,8 C 84 % 1016,5 hPa 0,0 l/m 2,9 km/h (1 Bft) W-SW 255 0 min 0 W/m 7,2 C 9,8 C 2,9 km/h (1 Bft)
12.10.2010 20:45 9,8 C 84 % 1016,5 hPa 0,0 l/m 2,5 km/h (1 Bft) W 260 0 min 0 W/m 7,2 C 9,8 C 2,5 km/h (1 Bft)
12.10.2010 20:50 9,8 C 84 % 1016,5 hPa 0,0 l/m 0,0 km/h (0 Bft) W 260 0 min 0 W/m 7,2 C 9,8 C 0,0 km/h (0 Bft)
12.10.2010 20:56 9,7 C 84 % 1016,5 hPa 0,0 l/m 0,1 km/h (0 Bft) W 260 0 min 0 W/m 7,1 C 9,7 C 0,1 km/h (0 Bft)
12.10.2010 21:00 9,7 C 84 % 1016,5 hPa 0,0 l/m 2,9 km/h (1 Bft) W 260 0 min 0 W/m 7,1 C 9,7 C 2,9 km/h (1 Bft)
12.10.2010 21:05 9,6 C 84 % 1016,5 hPa 0,0 l/m 4,3 km/h (1 Bft) W 260 0 min 0 W/m 7,0 C 9,6 C 4,3 km/h (1 Bft)
12.10.2010 21:10 9,6 C 84 % 1016,5 hPa 0,0 l/m 2,5 km/h (1 Bft) W 260 0 min 0 W/m 7,0 C 9,6 C 2,5 km/h (1 Bft)
12.10.2010 21:15 9,6 C 84 % 1016,5 hPa 0,0 l/m 0,4 km/h (0 Bft) W 260 0 min 0 W/m 7,0 C 9,6 C 0,4 km/h (0 Bft)
12.10.2010 21:20 9,5 C 84 % 1016,5 hPa 0,0 l/m 0,0 km/h (0 Bft) W 260 0 min 0 W/m 6,9 C 9,5 C 0,0 km/h (0 Bft)
12.10.2010 21:25 9,4 C 84 % 1016,5 hPa 0,0 l/m 0,3 km/h (0 Bft) W 260 0 min 0 W/m 6,8 C 9,4 C 0,3 km/h (0 Bft)
12.10.2010 21:30 9,4 C 84 % 1016,5 hPa 0,0 l/m 3,7 km/h (1 Bft) W-SW 255 0 min 0 W/m 6,8 C 9,4 C 3,7 km/h (1 Bft)
12.10.2010 21:35 9,4 C 84 % 1016,5 hPa 0,0 l/m 2,7 km/h (1 Bft) W 260 0 min 0 W/m 6,8 C 9,4 C 2,7 km/h (1 Bft)
12.10.2010 21:40 9,5 C 85 % 1016,5 hPa 0,0 l/m 4,5 km/h (1 Bft) W 260 0 min 0 W/m 7,1 C 9,5 C 4,5 km/h (1 Bft)
12.10.2010 21:46 9,5 C 85 % 1016,5 hPa 0,0 l/m 5,1 km/h (1 Bft) W-SW 255 0 min 0 W/m 7,1 C 9,5 C 5,1 km/h (1 Bft)
12.10.2010 21:50 9,5 C 85 % 1016,5 hPa 0,0 l/m 7,2 km/h (2 Bft) W 260 0 min 0 W/m 7,1 C 8,9 C 7,2 km/h (2 Bft)
12.10.2010 21:55 9,5 C 85 % 1016,5 hPa 0,0 l/m 4,0 km/h (1 Bft) W 260 0 min 0 W/m 7,1 C 9,5 C 4,0 km/h (1 Bft)
12.10.2010 22:00 9,6 C 85 % 1016,5 hPa 0,0 l/m 4,1 km/h (1 Bft) W 260 0 min 0 W/m 7,2 C 9,6 C 4,1 km/h (1 Bft)
12.10.2010 22:05 9,6 C 85 % 1016,5 hPa 0,0 l/m 0,3 km/h (0 Bft) W 260 0 min 0 W/m 7,2 C 9,6 C 0,3 km/h (0 Bft)
12.10.2010 22:10 9,6 C 85 % 1016,5 hPa 0,0 l/m 3,7 km/h (1 Bft) W-SW 255 0 min 0 W/m 7,2 C 9,6 C 3,7 km/h (1 Bft)
12.10.2010 22:15 9,6 C 85 % 1016,5 hPa 0,0 l/m 3,3 km/h (1 Bft) W 260 0 min 0 W/m 7,2 C 9,6 C 3,3 km/h (1 Bft)
12.10.2010 22:20 9,6 C 85 % 1016,5 hPa 0,0 l/m 4,1 km/h (1 Bft) W 260 0 min 0 W/m 7,2 C 9,6 C 4,1 km/h (1 Bft)
12.10.2010 22:25 9,6 C 85 % 1016,5 hPa 0,0 l/m 3,6 km/h (1 Bft) W-SW 255 0 min 0 W/m 7,2 C 9,6 C 3,6 km/h (1 Bft)
12.10.2010 22:30 9,5 C 85 % 1016,5 hPa 0,0 l/m 0,1 km/h (0 Bft) W-SW 255 0 min 0 W/m 7,1 C 9,5 C 0,1 km/h (0 Bft)
12.10.2010 22:36 9,5 C 85 % 1016,5 hPa 0,0 l/m 0,5 km/h (0 Bft) W-SW 255 0 min 0 W/m 7,1 C 9,5 C 0,5 km/h (0 Bft)
12.10.2010 22:40 9,4 C 85 % 1016,5 hPa 0,0 l/m 3,1 km/h (1 Bft) W-SW 255 0 min 0 W/m 7,0 C 9,4 C 3,1 km/h (1 Bft)
12.10.2010 22:45 9,3 C 85 % 1016,5 hPa 0,0 l/m 0,9 km/h (0 Bft) W-SW 255 0 min 0 W/m 6,9 C 9,3 C 0,9 km/h (0 Bft)
12.10.2010 22:50 9,3 C 85 % 1016,5 hPa 0,0 l/m 0,3 km/h (0 Bft) W-SW 255 0 min 0 W/m 6,9 C 9,3 C 0,3 km/h (0 Bft)
12.10.2010 22:55 9,3 C 85 % 1016,5 hPa 0,0 l/m 0,6 km/h (0 Bft) W-SW 255 0 min 0 W/m 6,9 C 9,3 C 0,6 km/h (0 Bft)
12.10.2010 23:00 9,2 C 85 % 1016,5 hPa 0,0 l/m 0,2 km/h (0 Bft) W-SW 255 0 min 0 W/m 6,8 C 9,2 C 0,2 km/h (0 Bft)
12.10.2010 23:05 9,2 C 85 % 1016,5 hPa 0,0 l/m 0,0 km/h (0 Bft) W-SW 255 0 min 0 W/m 6,8 C 9,2 C 0,0 km/h (0 Bft)
12.10.2010 23:10 9,3 C 85 % 1016,5 hPa 0,0 l/m 0,0 km/h (0 Bft) W-SW 255 0 min 0 W/m 6,9 C 9,3 C 0,0 km/h (0 Bft)
12.10.2010 23:15 9,4 C 86 % 1016,5 hPa 0,0 l/m 5,1 km/h (1 Bft) W-SW 255 0 min 0 W/m 7,2 C 9,4 C 5,1 km/h (1 Bft)
12.10.2010 23:20 9,4 C 86 % 1016,5 hPa 0,0 l/m 3,6 km/h (1 Bft) W-SW 255 0 min 0 W/m 7,2 C 9,4 C 3,6 km/h (1 Bft)
12.10.2010 23:25 9,4 C 86 % 1016,5 hPa 0,0 l/m 5,1 km/h (1 Bft) W-SW 255 0 min 0 W/m 7,2 C 9,4 C 5,1 km/h (1 Bft)
12.10.2010 23:30 9,4 C 86 % 1016,5 hPa 0,0 l/m 5,0 km/h (1 Bft) W-SW 255 0 min 0 W/m 7,2 C 9,4 C 5,0 km/h (1 Bft)
12.10.2010 23:35 9,5 C 86 % 1016,5 hPa 0,0 l/m 2,3 km/h (1 Bft) W 260 0 min 0 W/m 7,3 C 9,5 C 2,3 km/h (1 Bft)
12.10.2010 23:40 9,5 C 86 % 1016,5 hPa 0,0 l/m 4,9 km/h (1 Bft) W 260 0 min 0 W/m 7,3 C 9,5 C 4,9 km/h (1 Bft)
12.10.2010 23:45 9,6 C 86 % 1016,5 hPa 0,0 l/m 4,6 km/h (1 Bft) W 260 0 min 0 W/m 7,4 C 9,6 C 4,6 km/h (1 Bft)
12.10.2010 23:50 9,6 C 86 % 1016,5 hPa 0,0 l/m 3,3 km/h (1 Bft) W 260 0 min 0 W/m 7,4 C 9,6 C 3,3 km/h (1 Bft)
12.10.2010 23:55 9,6 C 86 % 1016,5 hPa 0,0 l/m 3,3 km/h (1 Bft) W 260 0 min 0 W/m 7,4 C 9,6 C 3,3 km/h (1 Bft)
_ Min-Zeit 06:50 16:15 15:40 - 00:00 - - - - 06:55 06:50 00:00
Minimum _ 4,8 C 76 % 1016,5 hPa - 0,0 km/h (0 Bft) - - - - 2,2 C 4,8 C 0,0 km/h (0 Bft)
_ Max-Zeit 15:00 11:00 00:00 00:00 14:25 - - 00:00 00:00 14:30 17:45 14:25
Maximum _ 12,3 C 90 % 1018,5 hPa 0,0 l/m 16,4 km/h
W-NW (3 Bft)
- - 0 min 0 W/m 8,7 C 11,5 C 16,4 km/h
W-NW (3 Bft)
Durchschnitt _ 8,8 C 83 % 1017,6 hPa #0,0 l/m 3,8 km/h (1 Bft) W - #0 min. 0 W/m 6,1 C 8,0 C 3,8 km/h (1 Bft)
copyright by Holger Just